SCP
0 0 0 0 0 0 0 0 0 0 0 0 0 0 0 0 0 0 0 0 0 0 0 0 0 0 0 0 0 0 0 0 0 0 0 0 0 0 0 0 0 0 0
0 0 0 0 0 0 0 0 0 0 0 0 0 0 0 0 0 0 0 0 0 0 0 0 0 0 0 0 0 0 0 0 0 0 0 0 0 0 0 0 0 0 0
0 0 0 0 0 0 0 0 0 0 0 0 0 0 0 0 0 0 0 0 0 0 0 0 0 0 0 0 0 0 0 0 0 0 0 0 0 0 0 0 0 0 0
0 0 0 0 0 0 0 0 0 0 0 0 0 0 0 0 0 0 0 0 0 0 0 0 0 0 0 0 0 0 0 0 0 0 0 0 0 0 0 0 0 0 0
0 0 0 0 0 0 0 0 0 0 0 0 0 0 0 0 0 0 0 0 0 0 0 0 0 0 0 0 0 0 0 0 0 0 0 0 0 0 0 0 0 0 0
0 0 0 0 0 0 0 0 0 0 0 0 0 0 0 0 0 0 0 0 0 0 0 0 0 0 0 0 0 0 0 0 0 0 0 0 0 0 0 0 0 0 0
0 0 0 0 0 0 0 0 0 0 0 0 0 0 0 0 0 0 0 0 0 0 0 0 0 0 0 0 0 0 0 0 0 0 0 0 0 0 0 0 0 0 0
0 0 0 0 0 0 0 0 0 0 0 0 0 0 0 0 0 0 0 0 0 0 0 0 0 0 0 0 0 0 0 0 0 0 0 0 0 0 0 0 0 0 0
0 0 0 0 0 0 0 0 0 0 0 0 0 0 0 0 0 0 0 0 0 0 0 0 0 0 0 0 0 0 0 0 0 0 0 0 0 0 0 0 0 0 0
0 0 0 0 0 0 0 0 0 0 0 0 0 0 0 0 0 0 0 0 0 0 0 0 0 0 0 0 0 0 0 0 0 0 0 0 0 0 0 0 0 0 0
0 0 0 0 0 0 0 0 0 0 0 0 0 0 0 0 0 0 0 0 0 0 0 0 0 0 0 0 0 0 0 0 0 0 0 0 0 0 0 0 0 0 0
0 0 0 0 0 0 0 0 0 0 0 0 0 0 0 0 0 0 0 0 0 0 0 0 0 0 0 0 0 0 0 0 0 0 0 0 0 0 0 0 0 0 0
0 0 0 0 0 0 0 0 0 0 0 0 0 0 0 0 0 0 0 0 0 0 0 0 0 0 0 0 0 0 0 0 0 0 0 0 0 0 0 0 0 0 0
0 0 0 0 0 0 0 0 0 0 0 0 0 0 0 0 0 0 0 0 0 0 0 0 0 0 0 0 0 0 0 0 0 0 0 0 0 0 0 0 0 0 0
0 0 0 0 0 0 0 0 0 0 0 0 0 0 0 0 0 0 0 0 0 0 0 0 0 0 0 0 0 0 0 0 0 0 0 0 0 0 0 0 0 0 0
0 0 0 0 0 0 0 0 0 0 0 0 0 0 0 0 0 0 0 0 0 0 0 0 0 0 0 0 0 0 0 0 0 0 0 0 0 0 0 0 0 0 0
0 0 0 0 0 0 0 0 0 0 0 0 0 0 0 0 0 0 0 0 0 0 0 0 0 0 0 0 0 0 0 0 0 0 0 0 0 0 0 0 0 0 0
0 0 0 0 0 0 0 0 0 0 0 0 0 0 0 0 0 0 0 0 0 0 0 0 0 0 0 0 0 0 0 0 0 0 0 0 0 0 0 0 0 0 0
0 0 0 0 0 0 0 0 0 0 0 0 0 0 0 0 0 0 0 0 0 0 0 0 0 0 0 0 0 0 0 0 0 0 0 0 0 0 0 0 0 0 0
0 0 0 0 0 0 0 0 0 0 0 0 0 0 0 0 0 0 0 0 0 0 0 0 0 0 0 0 0 0 0 0 0 0 0 0 0 0 0 0 0 0 0
0 0 0 0 0 0 0 0 0 0 0 0 0 0 0 0 0 0 0 0 0 0 0 0 0 0 0 0 0 0 0 0 0 0 0 0 0 0 0 0 0 0 0
0 0 0 0 0 0 0 0 0 0 0 0 0 0 0 0 0 0 0 0 0 0 0 0 0 0 0 0 0 0 0 0 0 0 0 0 0 0 0 0 0 0 0
0 0 0 0 0 0 0 0 0 0 0 0 0 0 0 0 0 0 0 0 0 0 0 0 0 0 0 0 0 0 0 0 0 0 0 0 0 0 0 0 0 0 0
0 0 0 0 0 0 0 0 0 0 0 0 0 0 0 0 0 0 0 0 0 0 0 0 0 0 0 0 0 0 0 0 0 0 0 0 0 0 0 0 0 0 0
0 0 0 0 0 0 0 0 0 0 0 0 0 0 0 0 0 0 0 0 0 0 0 0 0 0 0 0 0 0 0 0 0 0 0 0 0 0 0 0 0 0 0
0 0 0 0 0 0 0 0 0 0 0 0 0 0 0 0 0 0 0 0 0 0 0 0 0 0 0 0 0 0 0 0 0 0 0 0 0 0 0 0 0 0 0
Wind_Speed_500mb
91 87 88 84 83 82 81 80 78 72 66 60 57 54 61 60 60 64 65 67 69 69 72 74 75 72 75 75 74 71 67 66 69 70 67 60 57 58 57 54 53 52 51
84 83 80 80 82 80 78 78 75 70 64 59 60 63 63 62 63 66 65 69 72 67 71 74 75 79 83 83 79 75 74 71 67 69 69 67 63 61 58 56 55 55 54
83 78 73 72 73 73 73 73 71 66 63 63 64 67 67 64 64 64 65 67 67 68 67 72 68 73 72 70 80 82 77 74 70 74 67 68 66 59 62 62 63 59 57
76 74 74 71 70 70 69 68 65 63 62 62 64 64 65 61 61 65 67 69 68 67 68 74 78 77 79 81 68 75 76 72 74 73 67 72 65 61 60 64 66 62 60
69 69 69 67 66 64 62 61 61 61 62 62 64 64 67 69 63 63 64 65 66 65 64 75 76 72 74 71 68 75 63 70 70 75 67 72 67 65 69 68 69 62 61
58 58 59 59 58 56 55 53 54 56 58 62 68 69 72 67 53 55 60 66 70 71 72 70 70 63 67 55 53 46 48 59 65 73 72 72 69 68 68 67 68 68 67
49 48 47 45 45 45 45 44 47 47 48 48 47 48 47 46 49 55 61 68 68 59 55 54 49 46 54 45 47 47 49 58 65 65 69 70 71 64 62 65 66 69 68
45 43 41 40 39 38 37 35 36 37 39 40 41 42 41 40 38 36 36 37 39 38 37 43 43 41 43 47 49 54 55 58 64 68 70 69 65 52 55 57 61 66 65
41 39 38 37 35 33 31 32 34 36 36 37 34 30 27 25 23 23 27 32 36 36 37 38 37 39 42 49 57 62 63 65 66 69 72 72 57 53 60 62 64 66 72
39 36 34 33 30 29 31 34 35 34 31 27 26 25 23 24 24 27 32 35 38 38 36 38 40 42 46 49 53 55 60 62 65 67 65 56 50 53 63 63 61 68 71
37 37 35 31 30 29 29 28 27 27 28 27 24 23 22 22 26 29 34 36 39 40 43 42 43 45 47 49 52 52 53 58 62 57 55 51 43 55 59 63 65 67 74
35 31 31 29 27 25 25 26 26 25 25 24 24 24 26 28 30 32 35 37 40 41 43 43 45 49 51 54 56 55 54 49 52 55 57 54 52 54 57 62 68 74 76
32 30 28 26 23 22 21 19 17 14 13 14 16 17 20 23 28 31 34 36 38 39 38 41 43 45 44 45 47 45 42 46 48 54 56 54 54 58 66 71 67 70 79
29 28 27 24 23 22 20 18 15 13 10 10 10 10 12 17 22 28 30 32 34 36 33 35 39 42 40 40 40 43 46 47 48 51 56 54 58 66 71 69 71 75 81
37 36 36 33 30 27 23 19 14 10 8 5 4 5 10 13 19 22 25 29 30 30 29 28 32 35 35 35 36 39 46 51 53 55 59 62 64 69 71 73 74 77 83
42 40 36 31 27 23 17 13 8 1 5 7 9 10 12 15 17 20 22 25 32 32 33 28 29 31 33 33 34 37 41 48 52 56 61 64 68 71 73 76 75 76 83
36 35 30 24 20 15 12 6 4 3 4 6 8 11 14 17 19 21 22 25 29 32 32 33 34 36 34 32 34 35 38 39 39 44 49 54 58 64 71 76 80 80 82
32 29 25 21 18 14 12 8 4 3 5 6 8 12 15 21 25 27 27 26 25 25 25 28 35 38 40 42 42 43 43 44 46 48 51 51 54 56 62 66 70 74 77
32 30 26 24 20 15 11 7 4 3 6 11 16 18 19 21 25 26 29 27 28 29 28 30 29 32 36 40 42 44 48 50 50 50 52 53 54 57 63 65 68 69 71
33 29 23 19 13 11 8 8 10 11 15 17 19 21 21 23 23 27 27 28 30 32 34 36 37 39 40 40 44 48 51 54 54 54 56 53 52 53 58 59 61 64 65
26 22 17 13 9 6 8 12 17 20 21 25 27 31 35 36 40 43 43 41 42 42 43 45 45 48 46 46 47 48 51 52 52 55 59 63 62 62 62 60 61 60 61
19 14 11 7 5 9 10 14 22 26 29 31 33 37 40 41 43 45 46 46 47 50 52 53 53 51 53 54 57 60 61 60 58 55 55 50 54 60 60 65 64 62 61
10 7 3 2 9 17 21 25 29 31 34 36 39 39 41 42 44 46 47 47 47 46 49 50 52 53 55 57 59 61 66 68 68 68 70 70 67 61 60 65 64 64 63
3 4 8 13 18 20 27 30 33 38 39 42 43 44 44 44 44 45 46 45 44 43 44 45 45 48 51 52 52 54 56 59 62 65 66 69 71 71 70 69 67 67 67
8 13 17 20 25 29 33 35 37 39 41 42 43 43 43 43 42 42 42 41 41 41 41 42 43 45 47 49 51 52 52 52 53 54 56 58 61 62 65 67 68 68 68
16 20 24 27 30 32 36 39 41 41 41 41 42 42 41 40 39 39 41 43 43 43 44 43 44 46 48 49 49 49 50 49 48 47 49 53 54 54 55 58 58 58 57
Wind_Direction_500mb
234 235 236 237 237 240 242 245 247 250 254 256 257 259 257 259 257 257 255 257 258 257 259 260 255 256 256 256 259 258 261 262 263 267 264 268 265 263 259 259 259 251 247
232 234 236 238 240 242 244 247 251 252 256 259 258 258 258 256 256 257 258 257 259 261 265 263 266 263 257 257 258 257 258 260 258 259 260 261 261 263 251 252 251 249 248
231 233 236 239 242 244 248 250 256 259 258 256 256 254 254 254 256 258 257 260 261 263 265 265 269 274 267 276 258 263 256 255 258 257 258 254 261 255 250 253 246 246 249
228 229 232 235 239 243 246 250 253 254 253 251 251 252 252 250 256 255 257 259 261 262 262 267 261 264 272 267 274 259 259 251 252 253 254 252 256 257 252 252 246 246 246
221 224 227 230 234 237 238 239 241 241 245 245 247 249 251 255 257 254 258 260 263 262 259 264 273 271 267 267 270 274 256 257 251 250 250 249 252 255 254 253 246 247 247
213 218 223 227 229 230 232 233 232 233 237 243 248 253 256 263 257 256 255 256 259 261 264 266 270 265 269 271 266 258 263 258 257 253 253 256 261 263 258 251 247 242 242
203 206 207 209 213 216 219 224 234 238 243 246 249 253 254 255 254 252 252 256 259 261 263 267 271 270 276 263 263 266 267 260 262 264 259 263 265 265 259 252 251 248 248
185 190 196 202 208 214 218 224 231 236 237 242 240 241 244 248 249 252 256 256 263 268 266 268 270 270 262 262 264 265 266 267 264 265 262 265 265 253 251 256 258 253 246
190 193 199 205 212 217 220 221 224 227 227 228 232 236 239 243 248 252 256 260 265 268 268 270 269 272 269 268 266 268 267 267 267 267 265 261 249 252 253 250 245 238 236
197 200 205 211 213 215 217 220 225 227 229 233 236 238 236 238 246 253 256 260 264 267 268 272 274 272 271 271 273 273 272 273 273 271 269 261 254 256 258 254 250 245 241
203 205 209 215 219 222 227 232 235 235 233 228 230 234 240 244 250 255 261 262 265 266 268 267 270 269 267 265 269 270 275 277 273 267 262 260 262 261 263 261 254 249 243
206 212 222 225 226 225 222 221 221 222 224 227 230 236 245 250 252 254 256 261 265 269 274 278 278 280 278 275 271 271 270 269 267 265 262 260 256 256 261 262 256 248 243
203 202 200 197 195 196 199 203 209 218 230 240 242 240 243 251 257 258 260 263 263 264 265 271 271 273 277 282 283 282 280 278 274 270 270 268 267 265 261 260 256 253 246
178 175 170 162 154 148 144 144 148 153 166 193 212 234 252 253 259 262 264 264 267 269 267 269 272 277 280 282 284 282 278 277 275 273 271 269 266 267 266 262 261 259 251
152 146 141 139 137 138 140 139 143 157 171 195 251 287 295 296 290 294 293 289 278 274 275 276 280 284 286 289 290 288 285 285 284 283 276 275 273 268 266 265 266 267 261
142 138 135 136 138 139 134 138 134 98 354 342 339 339 332 327 326 326 317 304 290 285 282 280 280 281 287 294 295 295 293 290 292 293 289 285 283 281 279 277 276 272 270
142 135 130 128 118 101 99 92 74 59 27 353 346 331 331 320 317 313 312 317 306 296 296 298 302 302 302 302 301 299 297 297 299 296 294 292 290 288 286 283 283 280 276
130 126 129 129 125 124 117 110 81 40 21 6 1 342 337 328 323 322 320 323 315 311 308 306 302 302 304 303 301 298 298 298 298 296 295 295 293 291 289 287 285 284 282
133 132 130 125 124 122 123 124 128 44 359 350 349 348 340 331 324 321 320 328 323 313 304 296 289 289 292 294 298 300 299 297 295 292 292 292 293 293 291 291 290 289 289
135 131 127 116 108 100 72 20 0 358 339 337 335 328 321 318 310 307 311 319 312 306 301 298 295 290 287 286 286 289 293 297 299 300 300 299 298 295 292 292 292 290 289
126 119 116 107 94 86 41 359 340 337 332 323 320 313 311 313 313 311 313 311 305 301 299 296 293 290 287 286 286 287 289 288 289 294 295 294 293 292 290 293 293 292 290
124 123 109 87 16 352 356 323 310 314 312 312 311 309 311 312 310 308 308 306 305 304 302 301 299 297 294 291 286 283 283 283 283 282 283 287 293 293 293 292 292 294 294
141 128 141 334 325 320 317 314 311 308 307 307 305 307 308 309 307 306 303 302 300 298 298 298 296 295 293 293 292 292 292 291 289 286 282 278 276 278 282 283 284 285 285
198 281 317 311 302 306 303 304 304 307 308 307 307 307 307 306 304 303 302 302 303 304 303 301 301 301 300 299 297 296 295 294 292 291 288 284 281 278 277 279 281 281 282
286 296 293 299 302 304 303 302 301 302 305 306 304 306 306 306 305 304 304 305 306 308 309 309 310 309 308 309 308 306 304 301 299 297 294 290 286 284 280 277 277 279 281
288 289 293 298 299 300 300 301 302 303 302 302 304 305 305 305 306 306 307 308 310 310 311 312 312 310 308 308 307 307 306 305 304 300 299 298 296 294 289 285 284 282 279
Wind_Speed_850mb
91 87 88 84 83 82 81 80 78 72 66 60 57 54 61 60 60 64 65 67 69 69 72 74 75 72 75 75 74 71 67 66 69 70 67 60 57 58 57 54 53 52 51
84 83 80 80 82 80 78 78 75 70 64 59 60 63 63 62 63 66 65 69 72 67 71 74 75 79 83 83 79 75 74 71 67 69 69 67 63 61 58 56 55 55 54
83 78 73 72 73 73 73 73 71 66 63 63 64 67 67 64 64 64 65 67 67 68 67 72 68 73 72 70 80 82 77 74 70 74 67 68 66 59 62 62 63 59 57
76 74 74 71 70 70 69 68 65 63 62 62 64 64 65 61 61 65 67 69 68 67 68 74 78 77 79 81 68 75 76 72 74 73 67 72 65 61 60 64 66 62 60
69 69 69 67 66 64 62 61 61 61 62 62 64 64 67 69 63 63 64 65 66 65 64 75 76 72 74 71 68 75 63 70 70 75 67 72 67 65 69 68 69 62 61
58 58 59 59 58 56 55 53 54 56 58 62 68 69 72 67 53 55 60 66 70 71 72 70 70 63 67 55 53 46 48 59 65 73 72 72 69 68 68 67 68 68 67
49 48 47 45 45 45 45 44 47 47 48 48 47 48 47 46 49 55 61 68 68 59 55 54 49 46 54 45 47 47 49 58 65 65 69 70 71 64 62 65 66 69 68
45 43 41 40 39 38 37 35 36 37 39 40 41 42 41 40 38 36 36 37 39 38 37 43 43 41 43 47 49 54 55 58 64 68 70 69 65 52 55 57 61 66 65
41 39 38 37 35 33 31 32 34 36 36 37 34 30 27 25 23 23 27 32 36 36 37 38 37 39 42 49 57 62 63 65 66 69 72 72 57 53 60 62 64 66 72
39 36 34 33 30 29 31 34 35 34 31 27 26 25 23 24 24 27 32 35 38 38 36 38 40 42 46 49 53 55 60 62 65 67 65 56 50 53 63 63 61 68 71
37 37 35 31 30 29 29 28 27 27 28 27 24 23 22 22 26 29 34 36 39 40 43 42 43 45 47 49 52 52 53 58 62 57 55 51 43 55 59 63 65 67 74
35 31 31 29 27 25 25 26 26 25 25 24 24 24 26 28 30 32 35 37 40 41 43 43 45 49 51 54 56 55 54 49 52 55 57 54 52 54 57 62 68 74 76
32 30 28 26 23 22 21 19 17 14 13 14 16 17 20 23 28 31 34 36 38 39 38 41 43 45 44 45 47 45 42 46 48 54 56 54 54 58 66 71 67 70 79
29 28 27 24 23 22 20 18 15 13 10 10 10 10 12 17 22 28 30 32 34 36 33 35 39 42 40 40 40 43 46 47 48 51 56 54 58 66 71 69 71 75 81
37 36 36 33 30 27 23 19 14 10 8 5 4 5 10 13 19 22 25 29 30 30 29 28 32 35 35 35 36 39 46 51 53 55 59 62 64 69 71 73 74 77 83
42 40 36 31 27 23 17 13 8 1 5 7 9 10 12 15 17 20 22 25 32 32 33 28 29 31 33 33 34 37 41 48 52 56 61 64 68 71 73 76 75 76 83
36 35 30 24 20 15 12 6 4 3 4 6 8 11 14 17 19 21 22 25 29 32 32 33 34 36 34 32 34 35 38 39 39 44 49 54 58 64 71 76 80 80 82
32 29 25 21 18 14 12 8 4 3 5 6 8 12 15 21 25 27 27 26 25 25 25 28 35 38 40 42 42 43 43 44 46 48 51 51 54 56 62 66 70 74 77
32 30 26 24 20 15 11 7 4 3 6 11 16 18 19 21 25 26 29 27 28 29 28 30 29 32 36 40 42 44 48 50 50 50 52 53 54 57 63 65 68 69 71
33 29 23 19 13 11 8 8 10 11 15 17 19 21 21 23 23 27 27 28 30 32 34 36 37 39 40 40 44 48 51 54 54 54 56 53 52 53 58 59 61 64 65
26 22 17 13 9 6 8 12 17 20 21 25 27 31 35 36 40 43 43 41 42 42 43 45 45 48 46 46 47 48 51 52 52 55 59 63 62 62 62 60 61 60 61
19 14 11 7 5 9 10 14 22 26 29 31 33 37 40 41 43 45 46 46 47 50 52 53 53 51 53 54 57 60 61 60 58 55 55 50 54 60 60 65 64 62 61
10 7 3 2 9 17 21 25 29 31 34 36 39 39 41 42 44 46 47 47 47 46 49 50 52 53 55 57 59 61 66 68 68 68 70 70 67 61 60 65 64 64 63
3 4 8 13 18 20 27 30 33 38 39 42 43 44 44 44 44 45 46 45 44 43 44 45 45 48 51 52 52 54 56 59 62 65 66 69 71 71 70 69 67 67 67
8 13 17 20 25 29 33 35 37 39 41 42 43 43 43 43 42 42 42 41 41 41 41 42 43 45 47 49 51 52 52 52 53 54 56 58 61 62 65 67 68 68 68
16 20 24 27 30 32 36 39 41 41 41 41 42 42 41 40 39 39 41 43 43 43 44 43 44 46 48 49 49 49 50 49 48 47 49 53 54 54 55 58 58 58 57
Wind_Direction_850mb
234 235 236 237 237 240 242 245 247 250 254 256 257 259 257 259 257 257 255 257 258 257 259 260 255 256 256 256 259 258 261 262 263 267 264 268 265 263 259 259 259 251 247
232 234 236 238 240 242 244 247 251 252 256 259 258 258 258 256 256 257 258 257 259 261 265 263 266 263 257 257 258 257 258 260 258 259 260 261 261 263 251 252 251 249 248
231 233 236 239 242 244 248 250 256 259 258 256 256 254 254 254 256 258 257 260 261 263 265 265 269 274 267 276 258 263 256 255 258 257 258 254 261 255 250 253 246 246 249
228 229 232 235 239 243 246 250 253 254 253 251 251 252 252 250 256 255 257 259 261 262 262 267 261 264 272 267 274 259 259 251 252 253 254 252 256 257 252 252 246 246 246
221 224 227 230 234 237 238 239 241 241 245 245 247 249 251 255 257 254 258 260 263 262 259 264 273 271 267 267 270 274 256 257 251 250 250 249 252 255 254 253 246 247 247
213 218 223 227 229 230 232 233 232 233 237 243 248 253 256 263 257 256 255 256 259 261 264 266 270 265 269 271 266 258 263 258 257 253 253 256 261 263 258 251 247 242 242
203 206 207 209 213 216 219 224 234 238 243 246 249 253 254 255 254 252 252 256 259 261 263 267 271 270 276 263 263 266 267 260 262 264 259 263 265 265 259 252 251 248 248
185 190 196 202 208 214 218 224 231 236 237 242 240 241 244 248 249 252 256 256 263 268 266 268 270 270 262 262 264 265 266 267 264 265 262 265 265 253 251 256 258 253 246
190 193 199 205 212 217 220 221 224 227 227 228 232 236 239 243 248 252 256 260 265 268 268 270 269 272 269 268 266 268 267 267 267 267 265 261 249 252 253 250 245 238 236
197 200 205 211 213 215 217 220 225 227 229 233 236 238 236 238 246 253 256 260 264 267 268 272 274 272 271 271 273 273 272 273 273 271 269 261 254 256 258 254 250 245 241
203 205 209 215 219 222 227 232 235 235 233 228 230 234 240 244 250 255 261 262 265 266 268 267 270 269 267 265 269 270 275 277 273 267 262 260 262 261 263 261 254 249 243
206 212 222 225 226 225 222 221 221 222 224 227 230 236 245 250 252 254 256 261 265 269 274 278 278 280 278 275 271 271 270 269 267 265 262 260 256 256 261 262 256 248 243
203 202 200 197 195 196 199 203 209 218 230 240 242 240 243 251 257 258 260 263 263 264 265 271 271 273 277 282 283 282 280 278 274 270 270 268 267 265 261 260 256 253 246
178 175 170 162 154 148 144 144 148 153 166 193 212 234 252 253 259 262 264 264 267 269 267 269 272 277 280 282 284 282 278 277 275 273 271 269 266 267 266 262 261 259 251
152 146 141 139 137 138 140 139 143 157 171 195 251 287 295 296 290 294 293 289 278 274 275 276 280 284 286 289 290 288 285 285 284 283 276 275 273 268 266 265 266 267 261
142 138 135 136 138 139 134 138 134 98 354 342 339 339 332 327 326 326 317 304 290 285 282 280 280 281 287 294 295 295 293 290 292 293 289 285 283 281 279 277 276 272 270
142 135 130 128 118 101 99 92 74 59 27 353 346 331 331 320 317 313 312 317 306 296 296 298 302 302 302 302 301 299 297 297 299 296 294 292 290 288 286 283 283 280 276
130 126 129 129 125 124 117 110 81 40 21 6 1 342 337 328 323 322 320 323 315 311 308 306 302 302 304 303 301 298 298 298 298 296 295 295 293 291 289 287 285 284 282
133 132 130 125 124 122 123 124 128 44 359 350 349 348 340 331 324 321 320 328 323 313 304 296 289 289 292 294 298 300 299 297 295 292 292 292 293 293 291 291 290 289 289
135 131 127 116 108 100 72 20 0 358 339 337 335 328 321 318 310 307 311 319 312 306 301 298 295 290 287 286 286 289 293 297 299 300 300 299 298 295 292 292 292 290 289
126 119 116 107 94 86 41 359 340 337 332 323 320 313 311 313 313 311 313 311 305 301 299 296 293 290 287 286 286 287 289 288 289 294 295 294 293 292 290 293 293 292 290
124 123 109 87 16 352 356 323 310 314 312 312 311 309 311 312 310 308 308 306 305 304 302 301 299 297 294 291 286 283 283 283 283 282 283 287 293 293 293 292 292 294 294
141 128 141 334 325 320 317 314 311 308 307 307 305 307 308 309 307 306 303 302 300 298 298 298 296 295 293 293 292 292 292 291 289 286 282 278 276 278 282 283 284 285 285
198 281 317 311 302 306 303 304 304 307 308 307 307 307 307 306 304 303 302 302 303 304 303 301 301 301 300 299 297 296 295 294 292 291 288 284 281 278 277 279 281 281 282
286 296 293 299 302 304 303 302 301 302 305 306 304 306 306 306 305 304 304 305 306 308 309 309 310 309 308 309 308 306 304 301 299 297 294 290 286 284 280 277 277 279 281
288 289 293 298 299 300 300 301 302 303 302 302 304 305 305 305 306 306 307 308 310 310 311 312 312 310 308 308 307 307 306 305 304 300 299 298 296 294 289 285 284 282 279